Thayer, KS

1:35 AM CST on December 08, 2016 (GMT -0600)
Tri-City

Weather History for KPPF - November, 2011

Change the Weather History Date:

Wednesday, November 9, 2011

  Actual Average Record
Temperature  
Mean Temperature 44 °F -  
Max Temperature 55 °F 59 °F 84 °F (2006)
Min Temperature 34 °F 38 °F 14 °F (1991)
Degree Days  
Heating Degree Days 20    
Moisture  
Dew Point 32 °F    
Average Humidity 69    
Maximum Humidity 87    
Minimum Humidity 35    
Precipitation  
Precipitation 0.00 in - - ()
Sea Level Pressure  
Sea Level Pressure 30.25 in    
Wind  
Wind Speed 14 mph (NW)    
Max Wind Speed 24 mph    
Max Gust Speed 36 mph    
Visibility 10 miles    
Events      
Averages and records for this station are not official NWS values.
T = Trace of Precipitation, MM = Missing Value Source: NWS Daily Summary

Daily Weather History Graph

Daily Weather History Graph

Search for Another Location

Airport or City:

Trip Planner

Search our weather history database for the weather conditions in past years. The results will help you decide how hot, cold, wet, or windy it might be!

Date:

Astronomy

Nov. 09, 2011 Rise Set
Actual Time 6:54 AM CST 5:16 PM CST
Civil Twilight 6:27 AM CST 5:43 PM CST
Nautical Twilight 5:56 AM CST 6:15 PM CST
Astronomical Twilight 5:25 AM CST 6:45 PM CST
Moon 4:29 PM CST (11/9) 5:51 AM CST (11/9)
Length of Visible Light 11h 16m
Length of Day
10h 21m
Waxing Gibbous, 99% of the Moon is Illuminated
Nov 9
Waxing Gibbous
Nov 10
Full
Nov 18
Last Quarter
Nov 25
New
Dec 2
First Quarter

Hourly Weather History & Observations

Time (CST) Temp. Windchill Dew Point Humidity Pressure Visibility Wind Dir Wind Speed Gust Speed Precip Events Conditions
12:25 AM 39.2 °F 29.0 °F - N/A% 30.00 in 10.0 mi NNW 21.9 mph 35.7 mph 0.00 in   Overcast
12:52 AM 39.9 °F 31.1 °F - N/A% 30.01 in 10.0 mi NNW 17.3 mph 29.9 mph 0.00 in   Overcast
1:52 AM 39.9 °F 29.5 °F 35.1 °F 83% 30.05 in 10.0 mi NNW 24.2 mph 32.2 mph N/A   Overcast
2:48 AM 39.2 °F 29.8 °F 35.6 °F 87% 30.10 in 10.0 mi NW 18.4 mph 29.9 mph N/A   Overcast
2:52 AM 39.0 °F 30.3 °F 35.1 °F 86% 30.10 in 10.0 mi NW 16.1 mph 25.3 mph N/A   Overcast
3:25 AM 39.2 °F 29.8 °F 35.6 °F 87% 30.11 in 10.0 mi NNW 18.4 mph 26.5 mph N/A   Overcast
4:52 AM 41.0 °F 33.9 °F 37.0 °F 86% 30.16 in 10.0 mi NNW 12.7 mph 23.0 mph N/A   Overcast
5:52 AM 41.0 °F 33.5 °F 36.0 °F 82% 30.19 in 10.0 mi NNW 13.8 mph - N/A   Partly Cloudy
6:52 AM 39.0 °F 34.0 °F 35.1 °F 86% 30.22 in 10.0 mi WNW 6.9 mph - N/A   Clear
8:52 AM 42.1 °F 34.9 °F 33.1 °F 70% 30.30 in 10.0 mi NW 13.8 mph - N/A   Clear
9:52 AM 45.0 °F 39.3 °F 33.1 °F 63% 30.31 in 10.0 mi NW 11.5 mph - N/A   Clear
10:52 AM 48.0 °F - 34.0 °F 58% 30.33 in 10.0 mi NW 11.5 mph 21.9 mph N/A   Clear
11:52 AM 52.0 °F - 33.1 °F 49% 30.32 in 10.0 mi NW 12.7 mph - N/A   Clear
1:52 PM 55.9 °F - 32.0 °F 40% 30.30 in 10.0 mi NW 16.1 mph 21.9 mph N/A   Clear
2:52 PM 55.9 °F - 30.9 °F 39% 30.31 in 10.0 mi NW 15.0 mph - N/A   Clear
3:52 PM 55.0 °F - 28.0 °F 35% 30.32 in 10.0 mi NNW 13.8 mph 20.7 mph N/A   Clear
4:52 PM 52.0 °F - 28.0 °F 40% 30.32 in 10.0 mi NNW 9.2 mph - N/A   Clear
5:52 PM 44.1 °F 41.5 °F 30.0 °F 58% 30.34 in 10.0 mi NNW 4.6 mph - N/A   Clear
6:52 PM 39.9 °F - 33.1 °F 77% 30.35 in 10.0 mi Calm Calm - N/A   Clear
7:52 PM 39.9 °F 37.8 °F 30.0 °F 68% 30.35 in 10.0 mi WNW 3.5 mph - N/A   Clear
8:52 PM 39.0 °F 36.8 °F 28.9 °F 67% 30.37 in 10.0 mi WNW 3.5 mph - N/A   Clear
9:52 PM 35.1 °F - 30.0 °F 82% 30.38 in 10.0 mi Calm Calm - N/A   Clear
10:52 PM 34.0 °F - 28.9 °F 82% 30.38 in 10.0 mi Calm Calm - N/A   Clear
11:52 PM 34.0 °F - 30.0 °F 85% 30.39 in 10.0 mi Calm Calm - N/A   Clear